| time (UTC) | temp F | wind direction | speed MPH | gust MPH | rain 1hr in | rain 24hr in | rain mn in | humidity % | barometer mb |
| 20260506073518 | 57 | 107 | 1.0 | 3.0 | 0.00 | 0.00 | 0.00 | 51 | 1016.5 |
| 20260506073017 | 57 | 115 | 1.0 | 2.0 | 0.00 | 0.00 | 0.00 | 51 | 1016.4 |
| 20260506072537 | 58 | 133 | 1.0 | 2.0 | 0.00 | 0.00 | 0.00 | 50 | 1016.3 |
| 20260506072017 | 58 | 88 | 1.0 | 1.0 | 0.00 | 0.00 | 0.00 | 48 | 1016.3 |
| 20260506071517 | 59 | 113 | 1.0 | 2.0 | 0.00 | 0.00 | 0.00 | 47 | 1016.3 |
| 20260506071021 | 59 | 88 | 1.0 | 2.0 | 0.00 | 0.00 | 0.00 | 45 | 1016.2 |
| 20260506070519 | 59 | 82 | 1.0 | 2.0 | 0.00 | 0.00 | 0.00 | 44 | 1016.2 |
| 20260506062019 | 61 | 112 | 1.0 | 2.0 | 0.00 | 0.00 | 0.00 | 40 | 1015.7 |
| 20260506061517 | 60 | 79 | 1.0 | 2.0 | 0.00 | 0.00 | 0.00 | 40 | 1015.6 |
| 20260506061017 | 60 | 81 | 1.0 | 2.0 | 0.00 | 0.00 | 0.00 | 40 | 1015.5 |
| 20260506060536 | 60 | 89 | 1.0 | 2.0 | 0.00 | 0.00 | 0.00 | 41 | 1015.4 |
| 20260506051017 | 64 | 272 | 2.0 | 5.0 | 0.00 | 0.00 | 0.00 | 37 | 1015.1 |
| 20260506050517 | 64 | 257 | 2.0 | 8.0 | 0.00 | 0.00 | 0.00 | 39 | 1015.1 |
| 20260506045037 | 64 | 259 | 2.0 | 6.0 | 0.00 | 0.00 | 0.00 | 39 | 1015.0 |
| 20260506044518 | 63 | 134 | 2.0 | 5.0 | 0.00 | 0.00 | 0.00 | 39 | 1015.0 |
| 20260506044021 | 63 | 131 | 1.0 | 3.0 | 0.00 | 0.00 | 0.00 | 39 | 1015.0 |
| 20260506043521 | 63 | 131 | 1.0 | 3.0 | 0.00 | 0.00 | 0.00 | 42 | 1015.0 |
| 20260506043018 | 64 | 117 | 0.0 | 2.0 | 0.00 | 0.00 | 0.00 | 42 | 1015.0 |
| 20260506042520 | 64 | 189 | 0.0 | 2.0 | 0.00 | 0.00 | 0.00 | 41 | 1015.0 |
| 20260506042018 | 64 | 188 | 1.0 | 3.0 | 0.00 | 0.00 | 0.00 | 42 | 1014.9 |
| 20260506041518 | 64 | 178 | 1.0 | 3.0 | 0.00 | 0.00 | 0.00 | 44 | 1014.9 |
| 20260506041018 | 64 | 215 | 2.0 | 5.0 | 0.00 | 0.00 | 0.00 | 45 | 1014.9 |
| 20260506040518 | 64 | 220 | 1.0 | 4.0 | 0.00 | 0.00 | 0.00 | 47 | 1014.8 |
| 20260506040018 | 64 | 214 | 1.0 | 4.0 | 0.00 | 0.00 | 0.00 | 48 | 1014.8 |
| 20260506035518 | 65 | 224 | 2.0 | 5.0 | 0.00 | 0.00 | 0.00 | 48 | 1014.7 |
| 20260506035018 | 65 | 235 | 0.0 | 2.0 | 0.00 | 0.00 | 0.00 | 50 | 1014.7 |
| 20260506034518 | 65 | 139 | 0.0 | 2.0 | 0.00 | 0.00 | 0.00 | 49 | 1014.5 |
| 20260506034018 | 66 | 251 | 1.0 | 2.0 | 0.00 | 0.00 | 0.00 | 49 | 1014.5 |
| 20260506033518 | 66 | 254 | 2.0 | 5.0 | 0.00 | 0.00 | 0.00 | 49 | 1014.4 |
| 20260506033018 | 66 | 249 | 2.0 | 4.0 | 0.00 | 0.00 | 0.00 | 49 | 1014.4 |
| 20260506032538 | 67 | 269 | 2.0 | 5.0 | 0.00 | 0.00 | 0.00 | 48 | 1014.4 |
| 20260506032018 | 67 | 266 | 3.0 | 6.0 | 0.00 | 0.00 | 0.00 | 48 | 1014.4 |
| 20260506031519 | 67 | 267 | 3.0 | 6.0 | 0.00 | 0.00 | 0.00 | 47 | 1014.3 |
| 20260506031019 | 68 | 277 | 3.0 | 6.0 | 0.00 | 0.00 | 0.00 | 47 | 1014.2 |
| 20260506030519 | 68 | 271 | 3.0 | 6.0 | 0.00 | 0.00 | 0.00 | 46 | 1014.2 |
| 20260506030039 | 68 | 275 | 3.0 | 6.0 | 0.00 | 0.00 | 0.00 | 46 | 1014.2 |
| 20260506025519 | 68 | 272 | 3.0 | 8.0 | 0.00 | 0.00 | 0.00 | 46 | 1014.1 |
| 20260506025039 | 68 | 275 | 3.0 | 7.0 | 0.00 | 0.00 | 0.00 | 45 | 1014.0 |
| 20260506024519 | 69 | 292 | 3.0 | 7.0 | 0.00 | 0.00 | 0.00 | 45 | 1014.0 |
| 20260506024019 | 69 | 281 | 3.0 | 6.0 | 0.00 | 0.00 | 0.00 | 44 | 1014.0 |
| 20260506023536 | 69 | 276 | 3.0 | 6.0 | 0.00 | 0.00 | 0.00 | 44 | 1013.9 |
| 20260506023017 | 70 | 272 | 4.0 | 7.0 | 0.00 | 0.00 | 0.00 | 43 | 1013.9 |
| 20260506022557 | 70 | 275 | 5.0 | 13.0 | 0.00 | 0.00 | 0.00 | 42 | 1013.8 |
| 20260506022017 | 69 | 269 | 4.0 | 9.0 | 0.00 | 0.00 | 0.00 | 42 | 1013.8 |
| 20260506021517 | 69 | 273 | 5.0 | 12.0 | 0.00 | 0.00 | 0.00 | 43 | 1013.8 |
| 20260506021019 | 69 | 262 | 3.0 | 11.0 | 0.00 | 0.00 | 0.00 | 42 | 1013.8 |
| 20260506020520 | 69 | 266 | 4.0 | 9.0 | 0.00 | 0.00 | 0.00 | 42 | 1013.8 |
| 20260506020020 | 70 | 262 | 4.0 | 8.0 | 0.00 | 0.00 | 0.00 | 43 | 1013.8 |
| 20260506015540 | 70 | 264 | 5.0 | 9.0 | 0.00 | 0.00 | 0.00 | 42 | 1013.8 |
| 20260506015020 | 70 | 259 | 4.0 | 9.0 | 0.00 | 0.00 | 0.00 | 42 | 1013.8 |
| 20260506014517 | 70 | 263 | 5.0 | 10.0 | 0.00 | 0.00 | 0.00 | 43 | 1013.7 |
| 20260506014017 | 70 | 264 | 6.0 | 11.0 | 0.00 | 0.00 | 0.00 | 43 | 1013.7 |
| 20260506013537 | 71 | 262 | 7.0 | 12.0 | 0.00 | 0.00 | 0.00 | 43 | 1013.7 |
| 20260506013017 | 71 | 262 | 7.0 | 13.0 | 0.00 | 0.00 | 0.00 | 43 | 1013.6 |
| 20260506012537 | 71 | 271 | 5.0 | 11.0 | 0.00 | 0.00 | 0.00 | 42 | 1013.6 |
| 20260506012017 | 71 | 260 | 5.0 | 10.0 | 0.00 | 0.00 | 0.00 | 42 | 1013.6 |
| 20260506011537 | 70 | 268 | 5.0 | 10.0 | 0.00 | 0.00 | 0.00 | 43 | 1013.6 |
| 20260506011018 | 71 | 262 | 6.0 | 14.0 | 0.00 | 0.00 | 0.00 | 42 | 1013.6 |
| 20260506010518 | 72 | 272 | 6.0 | 9.0 | 0.00 | 0.00 | 0.00 | 41 | 1013.5 |
| 20260506010020 | 72 | 270 | 4.0 | 11.0 | 0.00 | 0.00 | 0.00 | 40 | 1013.5 |
| 20260506005517 | 72 | 268 | 4.0 | 10.0 | 0.00 | 0.00 | 0.00 | 39 | 1013.4 |
| 20260506005018 | 72 | 281 | 4.0 | 8.0 | 0.00 | 0.00 | 0.00 | 40 | 1013.4 |
| 20260506004518 | 73 | 270 | 6.0 | 13.0 | 0.00 | 0.00 | 0.00 | 39 | 1013.3 |
| 20260506004018 | 74 | 274 | 5.0 | 11.0 | 0.00 | 0.00 | 0.00 | 37 | 1013.3 |
| 20260506003518 | 75 | 312 | 4.0 | 8.0 | 0.00 | 0.00 | 0.00 | 35 | 1013.2 |
| 20260506003018 | 75 | 3 | 4.0 | 10.0 | 0.00 | 0.00 | 0.00 | 35 | 1013.1 |
| 20260506002518 | 74 | 354 | 3.0 | 7.0 | 0.00 | 0.00 | 0.00 | 35 | 1013.1 |
| 20260506002018 | 74 | 352 | 3.0 | 6.0 | 0.00 | 0.00 | 0.00 | 35 | 1013.1 |
| 20260506001518 | 73 | 343 | 2.0 | 6.0 | 0.00 | 0.00 | 0.00 | 35 | 1013.0 |
| 20260506001059 | 73 | 307 | 3.0 | 9.0 | 0.00 | 0.00 | 0.00 | 35 | 1013.0 |
| 20260506000519 | 73 | 321 | 3.0 | 11.0 | 0.00 | 0.00 | 0.00 | 35 | 1013.0 |
| 20260506000039 | 74 | 284 | 3.0 | 9.0 | 0.00 | 0.00 | 0.00 | 34 | 1013.0 |
| 20260505235539 | 75 | 325 | 3.0 | 7.0 | 0.00 | 0.00 | 0.00 | 34 | 1013.0 |
| 20260505235018 | 76 | 328 | 4.0 | 9.0 | 0.00 | 0.00 | 0.00 | 33 | 1012.9 |
| 20260505234536 | 77 | 316 | 4.0 | 12.0 | 0.00 | 0.00 | 0.00 | 32 | 1012.9 |
| 20260505234019 | 77 | 352 | 3.0 | 9.0 | 0.00 | 0.00 | 0.00 | 32 | 1012.9 |
| 20260505233519 | 77 | 340 | 3.0 | 8.0 | 0.00 | 0.00 | 0.00 | 32 | 1012.9 |
| 20260505233039 | 77 | 325 | 3.0 | 7.0 | 0.00 | 0.00 | 0.00 | 32 | 1012.9 |
| 20260505232519 | 77 | 14 | 3.0 | 6.0 | 0.00 | 0.00 | 0.00 | 32 | 1012.9 |
| 20260505232019 | 76 | 348 | 3.0 | 10.0 | 0.00 | 0.00 | 0.00 | 32 | 1012.9 |
| 20260505231619 | 76 | 328 | 4.0 | 10.0 | 0.00 | 0.00 | 0.00 | 32 | 1012.9 |
| 20260505231019 | 76 | 2 | 3.0 | 8.0 | 0.00 | 0.00 | 0.00 | 32 | 1013.0 |
| 20260505230519 | 77 | 326 | 3.0 | 9.0 | 0.00 | 0.00 | 0.00 | 32 | 1013.0 |
| 20260505230019 | 77 | 5 | 4.0 | 10.0 | 0.00 | 0.00 | 0.00 | 32 | 1012.9 |
| 20260505225537 | 77 | 11 | 4.0 | 9.0 | 0.00 | 0.00 | 0.00 | 32 | 1013.0 |
| 20260505225017 | 77 | 359 | 3.0 | 7.0 | 0.00 | 0.00 | 0.00 | 32 | 1013.0 |
| 20260505224516 | 77 | 358 | 3.0 | 11.0 | 0.00 | 0.00 | 0.00 | 32 | 1013.1 |
| 20260505224016 | 76 | 353 | 4.0 | 8.0 | 0.00 | 0.00 | 0.00 | 32 | 1013.0 |
| 20260505223517 | 76 | 346 | 5.0 | 11.0 | 0.00 | 0.00 | 0.00 | 33 | 1013.0 |
| 20260505223017 | 76 | 2 | 3.0 | 8.0 | 0.00 | 0.00 | 0.00 | 32 | 1013.1 |
| 20260505222537 | 76 | 14 | 3.0 | 8.0 | 0.00 | 0.00 | 0.00 | 32 | 1013.2 |
| 20260505222020 | 77 | 356 | 4.0 | 10.0 | 0.00 | 0.00 | 0.00 | 32 | 1013.1 |
| 20260505221520 | 77 | 359 | 3.0 | 11.0 | 0.00 | 0.00 | 0.00 | 32 | 1013.1 |
| 20260505221020 | 76 | 328 | 3.0 | 9.0 | 0.00 | 0.00 | 0.00 | 32 | 1013.1 |
| 20260505220521 | 76 | 327 | 3.0 | 6.0 | 0.00 | 0.00 | 0.00 | 33 | 1013.2 |
| 20260505220020 | 76 | 357 | 4.0 | 10.0 | 0.00 | 0.00 | 0.00 | 32 | 1013.2 |
| 20260505215517 | 76 | 310 | 2.0 | 5.0 | 0.00 | 0.00 | 0.00 | 32 | 1013.2 |
| 20260505215018 | 76 | 11 | 3.0 | 9.0 | 0.00 | 0.00 | 0.00 | 32 | 1013.3 |
| 20260505214518 | 76 | 315 | 3.0 | 8.0 | 0.00 | 0.00 | 0.00 | 32 | 1013.3 |
| 20260505214018 | 76 | 21 | 3.0 | 9.0 | 0.00 | 0.00 | 0.00 | 32 | 1013.3 |
| 20260505213518 | 76 | 355 | 4.0 | 8.0 | 0.00 | 0.00 | 0.00 | 32 | 1013.3 |
| 20260505213018 | 75 | 345 | 2.0 | 6.0 | 0.00 | 0.00 | 0.00 | 33 | 1013.4 |
| 20260505212518 | 75 | 315 | 2.0 | 7.0 | 0.00 | 0.00 | 0.00 | 33 | 1013.4 |
| 20260505212018 | 75 | 339 | 3.0 | 9.0 | 0.00 | 0.00 | 0.00 | 33 | 1013.5 |
| 20260505211518 | 75 | 3 | 4.0 | 9.0 | 0.00 | 0.00 | 0.00 | 33 | 1013.5 |
| 20260505211018 | 75 | 23 | 4.0 | 9.0 | 0.00 | 0.00 | 0.00 | 33 | 1013.4 |
| 20260505210517 | 74 | 348 | 4.0 | 8.0 | 0.00 | 0.00 | 0.00 | 34 | 1013.4 |
| 20260505210018 | 75 | 279 | 5.0 | 12.0 | 0.00 | 0.00 | 0.00 | 33 | 1013.4 |
| 20260505205518 | 75 | 0 | 3.0 | 9.0 | 0.00 | 0.00 | 0.00 | 34 | 1013.4 |
| 20260505205038 | 75 | 12 | 3.0 | 8.0 | 0.00 | 0.00 | 0.00 | 34 | 1013.4 |
| 20260505204518 | 76 | 1 | 3.0 | 7.0 | 0.00 | 0.00 | 0.00 | 33 | 1013.5 |
| 20260505204018 | 75 | 1 | 3.0 | 8.0 | 0.00 | 0.00 | 0.00 | 34 | 1013.4 |
| 20260505203519 | 74 | 350 | 2.0 | 5.0 | 0.00 | 0.00 | 0.00 | 35 | 1013.4 |
| 20260505203019 | 75 | 298 | 4.0 | 7.0 | 0.00 | 0.00 | 0.00 | 34 | 1013.4 |
| 20260505202518 | 75 | 336 | 3.0 | 8.0 | 0.00 | 0.00 | 0.00 | 34 | 1013.5 |
| 20260505202019 | 74 | 35 | 2.0 | 7.0 | 0.00 | 0.00 | 0.00 | 35 | 1013.5 |
| 20260505201519 | 74 | 2 | 4.0 | 8.0 | 0.00 | 0.00 | 0.00 | 35 | 1013.6 |
| 20260505201019 | 74 | 314 | 2.0 | 8.0 | 0.00 | 0.00 | 0.00 | 36 | 1013.6 |
| 20260505200539 | 74 | 356 | 3.0 | 8.0 | 0.00 | 0.00 | 0.00 | 35 | 1013.7 |
| 20260505200019 | 74 | 360 | 3.0 | 9.0 | 0.00 | 0.00 | 0.00 | 35 | 1013.7 |
| 20260505195519 | 73 | 327 | 2.0 | 6.0 | 0.00 | 0.00 | 0.00 | 37 | 1013.7 |
| 20260505195019 | 73 | 346 | 3.0 | 8.0 | 0.00 | 0.00 | 0.00 | 37 | 1013.7 |
| 20260505194519 | 73 | 354 | 3.0 | 7.0 | 0.00 | 0.00 | 0.00 | 38 | 1013.7 |
| 20260505194019 | 72 | 340 | 3.0 | 10.0 | 0.00 | 0.00 | 0.00 | 38 | 1013.7 |
| 20260505193519 | 72 | 340 | 4.0 | 11.0 | 0.00 | 0.00 | 0.00 | 38 | 1013.7 |
| 20260505193019 | 72 | 286 | 3.0 | 8.0 | 0.00 | 0.00 | 0.00 | 38 | 1013.7 |
| 20260505192519 | 72 | 8 | 3.0 | 9.0 | 0.00 | 0.00 | 0.00 | 39 | 1013.8 |
| 20260505192016 | 72 | 6 | 3.0 | 9.0 | 0.00 | 0.00 | 0.00 | 38 | 1013.8 |
| 20260505191516 | 72 | 355 | 3.0 | 10.0 | 0.00 | 0.00 | 0.00 | 38 | 1013.8 |
| 20260505191017 | 72 | 2 | 3.0 | 9.0 | 0.00 | 0.00 | 0.00 | 39 | 1013.8 |
| 20260505190557 | 71 | 316 | 2.0 | 7.0 | 0.00 | 0.00 | 0.00 | 40 | 1013.8 |
| 20260505190117 | 71 | 314 | 4.0 | 9.0 | 0.00 | 0.00 | 0.00 | 40 | 1013.8 |
| 20260505185517 | 71 | 340 | 3.0 | 8.0 | 0.00 | 0.00 | 0.00 | 40 | 1013.8 |
| 20260505185037 | 71 | 300 | 3.0 | 6.0 | 0.00 | 0.00 | 0.00 | 40 | 1013.9 |
| 20260505184517 | 71 | 355 | 2.0 | 6.0 | 0.00 | 0.00 | 0.00 | 40 | 1013.9 |
| 20260505184019 | 70 | 327 | 2.0 | 6.0 | 0.00 | 0.00 | 0.00 | 40 | 1013.9 |
| 20260505183520 | 71 | 350 | 2.0 | 8.0 | 0.00 | 0.00 | 0.00 | 39 | 1013.9 |
| 20260505183020 | 71 | 355 | 2.0 | 6.0 | 0.00 | 0.00 | 0.00 | 39 | 1013.8 |
| 20260505182517 | 70 | 356 | 2.0 | 7.0 | 0.00 | 0.00 | 0.00 | 39 | 1013.8 |
| 20260505182020 | 70 | 291 | 2.0 | 8.0 | 0.00 | 0.00 | 0.00 | 39 | 1013.8 |
| 20260505181517 | 69 | 273 | 3.0 | 8.0 | 0.00 | 0.00 | 0.00 | 39 | 1013.8 |
| 20260505181018 | 69 | 326 | 2.0 | 6.0 | 0.00 | 0.00 | 0.00 | 39 | 1013.8 |
| 20260505180517 | 68 | 107 | 1.0 | 4.0 | 0.00 | 0.00 | 0.00 | 41 | 1013.8 |
| 20260505180017 | 68 | 345 | 3.0 | 6.0 | 0.00 | 0.00 | 0.00 | 41 | 1013.8 |
| 20260505175518 | 69 | 8 | 2.0 | 6.0 | 0.00 | 0.00 | 0.00 | 41 | 1013.9 |
| 20260505175018 | 68 | 294 | 2.0 | 7.0 | 0.00 | 0.00 | 0.00 | 41 | 1013.8 |
| 20260505174537 | 67 | 217 | 1.0 | 4.0 | 0.00 | 0.00 | 0.00 | 41 | 1013.8 |
| 20260505174018 | 67 | 320 | 2.0 | 6.0 | 0.00 | 0.00 | 0.00 | 42 | 1013.8 |
| 20260505173518 | 66 | 293 | 2.0 | 5.0 | 0.00 | 0.00 | 0.00 | 43 | 1013.7 |
| 20260505173018 | 66 | 349 | 2.0 | 3.0 | 0.00 | 0.00 | 0.00 | 43 | 1013.8 |
| 20260505172518 | 65 | 103 | 1.0 | 4.0 | 0.00 | 0.00 | 0.00 | 43 | 1013.8 |
| 20260505172018 | 64 | 7 | 1.0 | 5.0 | 0.00 | 0.00 | 0.00 | 44 | 1013.7 |
| 20260505171518 | 63 | 295 | 2.0 | 4.0 | 0.00 | 0.00 | 0.00 | 45 | 1013.7 |
| 20260505171018 | 63 | 277 | 3.0 | 7.0 | 0.00 | 0.00 | 0.00 | 46 | 1013.7 |
| 20260505170518 | 64 | 271 | 3.0 | 7.0 | 0.00 | 0.00 | 0.00 | 45 | 1013.8 |
| 20260505170018 | 63 | 290 | 2.0 | 6.0 | 0.00 | 0.00 | 0.00 | 45 | 1013.8 |
| 20260505165519 | 63 | 284 | 2.0 | 6.0 | 0.00 | 0.00 | 0.00 | 45 | 1013.8 |
| 20260505165019 | 62 | 316 | 2.0 | 3.0 | 0.00 | 0.00 | 0.00 | 47 | 1013.8 |
| 20260505164519 | 62 | 269 | 3.0 | 6.0 | 0.00 | 0.00 | 0.00 | 48 | 1013.8 |
| 20260505164019 | 61 | 292 | 2.0 | 4.0 | 0.00 | 0.00 | 0.00 | 48 | 1013.9 |
| 20260505163700 | 61 | 274 | 2.0 | 5.0 | 0.00 | 0.00 | 0.00 | 48 | 1013.8 |
| 20260505163019 | 60 | 304 | 2.0 | 7.0 | 0.00 | 0.00 | 0.00 | 48 | 1013.8 |
| 20260505162519 | 60 | 268 | 2.0 | 6.0 | 0.00 | 0.00 | 0.00 | 50 | 1013.8 |
| 20260505162016 | 59 | 259 | 1.0 | 5.0 | 0.00 | 0.00 | 0.00 | 51 | 1013.8 |
| 20260505161516 | 59 | 286 | 2.0 | 4.0 | 0.00 | 0.00 | 0.00 | 52 | 1013.8 |
| 20260505161019 | 59 | 277 | 1.0 | 4.0 | 0.00 | 0.00 | 0.00 | 52 | 1013.7 |
| 20260505160519 | 58 | 271 | 1.0 | 6.0 | 0.00 | 0.00 | 0.00 | 54 | 1013.8 |
| 20260505153016 | 53 | 188 | 1.0 | 4.0 | 0.00 | 0.00 | 0.00 | 64 | 1013.7 |
| 20260505152519 | 52 | 193 | 1.0 | 2.0 | 0.00 | 0.00 | 0.00 | 65 | 1013.7 |
| 20260505152017 | 53 | 207 | 0.0 | 1.0 | 0.00 | 0.00 | 0.00 | 65 | 1013.7 |
| 20260505151517 | 53 | 235 | 1.0 | 3.0 | 0.00 | 0.00 | 0.00 | 64 | 1013.6 |
| 20260505151016 | 53 | 231 | 1.0 | 3.0 | 0.00 | 0.00 | 0.00 | 63 | 1013.6 |
| 20260505150517 | 53 | 238 | 1.0 | 3.0 | 0.00 | 0.00 | 0.00 | 62 | 1013.6 |
| 20260505140518 | 49 | 140 | 3.0 | 6.0 | 0.00 | 0.00 | 0.00 | 65 | 1012.8 |
| 20260505125019 | 51 | 127 | 1.0 | 2.0 | 0.00 | 0.00 | 0.00 | 64 | 1012.2 |
| 20260505124517 | 52 | 113 | 1.0 | 2.0 | 0.00 | 0.00 | 0.00 | 63 | 1012.2 |
| 20260505124016 | 52 | 110 | 1.0 | 2.0 | 0.00 | 0.00 | 0.00 | 62 | 1012.2 |
| 20260505123516 | 52 | 108 | 1.0 | 2.0 | 0.00 | 0.00 | 0.00 | 62 | 1012.2 |
| 20260505123019 | 51 | 103 | 1.0 | 3.0 | 0.00 | 0.00 | 0.00 | 62 | 1012.1 |
| 20260505122519 | 51 | 112 | 1.0 | 3.0 | 0.00 | 0.00 | 0.00 | 62 | 1012.1 |
| 20260505122020 | 51 | 110 | 1.0 | 3.0 | 0.00 | 0.00 | 0.00 | 61 | 1012.1 |
| 20260505121520 | 51 | 125 | 1.0 | 2.0 | 0.00 | 0.00 | 0.00 | 62 | 1012.1 |
| 20260505121019 | 51 | 142 | 1.0 | 2.0 | 0.00 | 0.00 | 0.00 | 63 | 1012.1 |
| 20260505120519 | 51 | 171 | 1.0 | 2.0 | 0.00 | 0.00 | 0.00 | 61 | 1012.1 |
| 20260505120020 | 51 | 133 | 1.0 | 2.0 | 0.00 | 0.00 | 0.00 | 61 | 1012.1 |
| 20260505115519 | 51 | 163 | 1.0 | 2.0 | 0.00 | 0.00 | 0.00 | 60 | 1012.0 |
| 20260505115037 | 51 | 159 | 1.0 | 2.0 | 0.00 | 0.00 | 0.00 | 60 | 1012.0 |
| 20260505114517 | 51 | 123 | 1.0 | 2.0 | 0.00 | 0.00 | 0.00 | 59 | 1012.0 |
| 20260505114017 | 51 | 120 | 1.0 | 2.0 | 0.00 | 0.00 | 0.00 | 58 | 1012.0 |
| 20260505113537 | 51 | 109 | 1.0 | 3.0 | 0.00 | 0.00 | 0.00 | 58 | 1012.1 |
| 20260505113037 | 51 | 105 | 1.0 | 2.0 | 0.00 | 0.00 | 0.00 | 59 | 1012.0 |
| 20260505112517 | 51 | 104 | 1.0 | 2.0 | 0.00 | 0.00 | 0.00 | 59 | 1012.0 |
| 20260505112020 | 51 | 102 | 2.0 | 2.0 | 0.00 | 0.00 | 0.00 | 59 | 1012.0 |
| 20260505111520 | 52 | 113 | 2.0 | 3.0 | 0.00 | 0.00 | 0.00 | 58 | 1012.0 |
| 20260505111017 | 52 | 119 | 2.0 | 3.0 | 0.00 | 0.00 | 0.00 | 58 | 1011.9 |
| 20260505110518 | 52 | 125 | 2.0 | 3.0 | 0.00 | 0.00 | 0.00 | 57 | 1011.9 |
| 20260505102018 | 53 | 132 | 2.0 | 4.0 | 0.00 | 0.00 | 0.00 | 60 | 1011.9 |
| 20260505101518 | 53 | 136 | 2.0 | 4.0 | 0.00 | 0.00 | 0.00 | 61 | 1011.9 |
| 20260505101018 | 53 | 136 | 2.0 | 4.0 | 0.00 | 0.00 | 0.00 | 61 | 1011.9 |
| 20260505100518 | 53 | 129 | 3.0 | 5.0 | 0.00 | 0.00 | 0.00 | 61 | 1011.9 |
| 20260505100018 | 54 | 129 | 3.0 | 6.0 | 0.00 | 0.00 | 0.00 | 60 | 1011.8 |
| 20260505095539 | 53 | 138 | 4.0 | 6.0 | 0.00 | 0.00 | 0.00 | 61 | 1011.8 |
| 20260505095019 | 53 | 139 | 3.0 | 6.0 | 0.00 | 0.00 | 0.00 | 61 | 1011.8 |
| 20260505094519 | 53 | 134 | 3.0 | 5.0 | 0.00 | 0.00 | 0.00 | 62 | 1011.9 |
| 20260505094018 | 53 | 122 | 2.0 | 4.0 | 0.00 | 0.00 | 0.00 | 62 | 1011.9 |
| 20260505093518 | 53 | 130 | 2.0 | 4.0 | 0.00 | 0.00 | 0.00 | 62 | 1011.9 |
| 20260505093019 | 54 | 138 | 3.0 | 6.0 | 0.00 | 0.00 | 0.00 | 61 | 1011.9 |
| 20260505092519 | 54 | 140 | 3.0 | 5.0 | 0.00 | 0.00 | 0.00 | 61 | 1011.9 |
| 20260505092019 | 54 | 133 | 3.0 | 7.0 | 0.00 | 0.00 | 0.00 | 60 | 1011.9 |
| 20260505091517 | 54 | 136 | 3.0 | 6.0 | 0.00 | 0.00 | 0.00 | 59 | 1011.9 |
| 20260505091016 | 54 | 139 | 3.0 | 6.0 | 0.00 | 0.00 | 0.00 | 59 | 1011.9 |
| 20260505090516 | 54 | 134 | 4.0 | 7.0 | 0.00 | 0.00 | 0.00 | 58 | 1011.8 |
| 20260505090019 | 54 | 140 | 2.0 | 5.0 | 0.00 | 0.00 | 0.00 | 58 | 1011.8 |
| 20260505085519 | 54 | 129 | 3.0 | 5.0 | 0.00 | 0.00 | 0.00 | 58 | 1011.8 |
| 20260505085019 | 54 | 119 | 3.0 | 5.0 | 0.00 | 0.00 | 0.00 | 58 | 1011.8 |
| 20260505084519 | 54 | 125 | 3.0 | 5.0 | 0.00 | 0.00 | 0.00 | 59 | 1011.8 |
| 20260505084020 | 54 | 122 | 2.0 | 4.0 | 0.00 | 0.00 | 0.00 | 60 | 1011.8 |
| 20260505083519 | 54 | 123 | 2.0 | 4.0 | 0.00 | 0.00 | 0.00 | 60 | 1011.9 |
| 20260505083057 | 54 | 121 | 2.0 | 5.0 | 0.00 | 0.00 | 0.00 | 60 | 1012.0 |
| 20260505082517 | 54 | 122 | 2.0 | 4.0 | 0.00 | 0.00 | 0.00 | 60 | 1011.9 |
| 20260505082017 | 53 | 107 | 2.0 | 4.0 | 0.00 | 0.00 | 0.00 | 60 | 1011.9 |
| 20260505081537 | 54 | 119 | 2.0 | 3.0 | 0.00 | 0.00 | 0.00 | 59 | 1011.9 |
| 20260505081017 | 54 | 122 | 1.0 | 3.0 | 0.00 | 0.00 | 0.00 | 58 | 1011.9 |
| 20260505080517 | 54 | 123 | 1.0 | 2.0 | 0.00 | 0.00 | 0.00 | 54 | 1011.9 |